�������l�o���
Date,Time,MP-1(��Sv/h),MP-2(��Sv/h),MP-3(��Sv/h),MP-4(��Sv/h),MP-5(��Sv/h),MP-6(��Sv/h),MP-7(��Sv/h),����,����(m/s),���J
2016/11/07,00:00,0.417,0.242,0.428,0.390,0.367,0.202,0.174,�k,7.4,��
2016/11/07,00:10,0.417,0.242,0.430,0.391,0.366,0.202,0.173,�k�k��,6.9,��
2016/11/07,00:20,0.419,0.242,0.428,0.391,0.367,0.201,0.174,�k�k��,6.7,��
2016/11/07,00:30,0.416,0.243,0.428,0.390,0.365,0.201,0.173,�k,6.8,��
2016/11/07,00:40,0.415,0.243,0.429,0.390,0.367,0.201,0.173,�k,7.4,��
2016/11/07,00:50,0.417,0.242,0.429,0.390,0.368,0.203,0.173,�k�k��,8.3,��
2016/11/07,01:00,0.417,0.243,0.430,0.392,0.366,0.201,0.173,�k,8.2,��
2016/11/07,01:10,0.416,0.242,0.428,0.390,0.367,0.201,0.173,�k,9.2,��
2016/11/07,01:20,0.418,0.242,0.430,0.389,0.365,0.202,0.173,�k,8.7,��
2016/11/07,01:30,0.418,0.241,0.428,0.392,0.366,0.201,0.174,�k,9.1,��
2016/11/07,01:40,0.418,0.242,0.429,0.389,0.367,0.202,0.173,�k,9.5,��
2016/11/07,01:50,0.417,0.242,0.431,0.390,0.367,0.202,0.173,�k�k��,9.0,��
2016/11/07,02:00,0.418,0.243,0.428,0.392,0.366,0.202,0.173,�k,9.6,��
2016/11/07,02:10,0.417,0.243,0.427,0.392,0.366,0.202,0.173,�k�k��,9.9,��
2016/11/07,02:20,0.416,0.243,0.428,0.391,0.368,0.200,0.173,�k�k��,8.6,��
2016/11/07,02:30,0.418,0.243,0.430,0.390,0.367,0.201,0.173,�k�k��,8.3,��
2016/11/07,02:40,0.418,0.241,0.428,0.392,0.366,0.202,0.173,�k�k��,7.0,��
2016/11/07,02:50,0.416,0.241,0.427,0.393,0.366,0.202,0.173,�k�k��,6.7,��
2016/11/07,03:00,0.418,0.243,0.429,0.391,0.366,0.202,0.174,�k�k��,6.7,��
2016/11/07,03:10,0.419,0.242,0.429,0.390,0.367,0.201,0.173,�k�k��,5.7,��
2016/11/07,03:20,0.418,0.242,0.427,0.391,0.367,0.201,0.173,�k�k��,5.8,��
2016/11/07,03:30,0.415,0.242,0.433,0.392,0.366,0.201,0.174,�k�k��,7.3,��
2016/11/07,03:40,0.415,0.242,0.427,0.390,0.366,0.201,0.173,�k�k��,8.4,��
2016/11/07,03:50,0.419,0.241,0.429,0.390,0.366,0.202,0.174,�k�k��,8.0,��
2016/11/07,04:00,0.417,0.243,0.430,0.390,0.368,0.202,0.173,�k�k��,8.6,��
2016/11/07,04:10,0.417,0.243,0.427,0.390,0.366,0.202,0.173,�k�k��,9.2,��
2016/11/07,04:20,0.418,0.242,0.427,0.391,0.365,0.202,0.173,�k�k��,9.2,��
2016/11/07,04:30,0.417,0.242,0.429,0.391,0.366,0.201,0.173,�k�k��,9.4,��
2016/11/07,04:40,0.416,0.242,0.430,0.390,0.367,0.201,0.173,�k�k��,9.2,��
2016/11/07,04:50,0.417,0.244,0.428,0.391,0.366,0.201,0.173,�k,8.9,��
2016/11/07,05:00,0.418,0.242,0.429,0.391,0.365,0.201,0.172,�k�k��,9.2,��
2016/11/07,05:10,0.417,0.244,0.427,0.391,0.368,0.201,0.173,�k�k��,8.8,��
2016/11/07,05:20,0.416,0.243,0.430,0.391,0.367,0.201,0.173,�k�k��,8.6,��
2016/11/07,05:30,0.417,0.243,0.428,0.390,0.367,0.199,0.172,�k�k��,9.1,��
2016/11/07,05:40,0.420,0.243,0.426,0.389,0.365,0.201,0.173,�k,10.4,��
2016/11/07,05:50,0.419,0.242,0.431,0.391,0.367,0.201,0.174,�k�k��,9.2,��
2016/11/07,06:00,0.417,0.242,0.429,0.389,0.367,0.202,0.173,�k�k��,7.9,��
2016/11/07,06:10,0.417,0.243,0.428,0.390,0.366,0.201,0.173,�k�k��,7.7,��
2016/11/07,06:20,0.417,0.242,0.428,0.390,0.366,0.202,0.174,�k�k��,7.3,��
2016/11/07,06:30,0.417,0.243,0.428,0.391,0.366,0.202,0.172,�k�k��,7.6,��
2016/11/07,06:40,0.416,0.243,0.427,0.390,0.366,0.200,0.173,�k�k��,7.8,��
2016/11/07,06:50,0.416,0.242,0.428,0.391,0.366,0.200,0.173,�k�k��,8.4,��
2016/11/07,07:00,0.416,0.242,0.429,0.391,0.365,0.201,0.173,�k�k��,7.7,��
2016/11/07,07:10,0.417,0.243,0.429,0.390,0.365,0.200,0.173,�k�k��,8.6,��
2016/11/07,07:20,0.418,0.242,0.427,0.388,0.367,0.202,0.172,�k�k��,8.3,��
2016/11/07,07:30,0.416,0.242,0.427,0.390,0.367,0.200,0.172,�k�k��,8.1,��
2016/11/07,07:40,0.417,0.242,0.429,0.390,0.369,0.201,0.172,�k,6.6,��
2016/11/07,07:50,0.417,0.241,0.429,0.390,0.366,0.201,0.172,�k,7.2,��
2016/11/07,08:00,0.417,0.243,0.426,0.389,0.366,0.201,0.172,�k�k��,5.6,��
2016/11/07,08:10,0.418,0.242,0.428,0.391,0.365,0.199,0.173,�k�k��,3.4,��
2016/11/07,08:20,0.416,0.243,0.428,0.388,0.367,0.201,0.173,�k��,2.5,��
2016/11/07,08:30,0.416,0.243,0.427,0.390,0.368,0.201,0.173,�k,7.2,��
2016/11/07,08:40,0.418,0.242,0.428,0.390,0.368,0.201,0.171,�k,6.1,��
2016/11/07,08:50,0.418,0.241,0.428,0.386,0.366,0.201,0.172,�k,5.6,��
2016/11/07,09:00,0.416,0.242,0.431,0.388,0.366,0.201,0.172,�k,6.4,��
2016/11/07,09:10,0.415,0.241,0.428,0.385,0.367,0.201,0.171,�k,5.4,��
2016/11/07,09:20,0.414,0.242,0.429,0.389,0.365,0.202,0.172,�k,4.7,��
2016/11/07,09:30,0.414,0.242,0.428,0.388,0.368,0.201,0.172,�k,5.8,��
2016/11/07,09:40,0.415,0.242,0.427,0.390,0.364,0.201,0.172,�k,7.2,��
2016/11/07,09:50,0.415,0.242,0.429,0.387,0.366,0.202,0.172,�k,4.9,��
2016/11/07,10:00,0.413,0.242,0.427,0.391,0.364,0.201,0.172,�k,6.9,��
2016/11/07,10:10,0.417,0.242,0.428,0.387,0.364,0.200,0.171,�k,5.6,��
2016/11/07,10:20,0.415,0.241,0.429,0.388,0.366,0.202,0.173,�k�k��,7.8,��
2016/11/07,10:30,0.415,0.242,0.428,0.386,0.366,0.202,0.171,�k,7.3,��
2016/11/07,10:40,0.417,0.241,0.428,0.388,0.365,0.202,0.172,�k,7.4,��
2016/11/07,10:50,0.415,0.241,0.430,0.388,0.365,0.201,0.172,�k,6.1,��
2016/11/07,11:00,0.417,0.242,0.427,0.388,0.366,0.201,0.173,�k,6.0,��
2016/11/07,11:10,0.415,0.241,0.427,0.387,0.367,0.201,0.172,�k�k��,4.8,��
2016/11/07,11:20,0.414,0.242,0.428,0.390,0.366,0.201,0.172,�k,5.9,��
2016/11/07,11:30,0.416,0.242,0.428,0.384,0.367,0.201,0.172,�k�k��,7.1,��
2016/11/07,11:40,0.415,0.241,0.430,0.391,0.364,0.201,0.173,�k,6.2,��
2016/11/07,11:50,0.418,0.243,0.427,0.385,0.365,0.201,0.172,�k�k��,5.8,��
2016/11/07,12:00,0.414,0.242,0.428,0.389,0.363,0.201,0.173,�k,5.3,��
2016/11/07,12:10,0.416,0.242,0.427,0.387,0.365,0.201,0.173,�k�k��,4.8,��
2016/11/07,12:20,0.417,0.242,0.428,0.386,0.366,0.201,0.173,�k�k��,4.0,��
2016/11/07,12:30,0.416,0.241,0.423,0.389,0.366,0.202,0.173,�k�k��,5.3,��
2016/11/07,12:40,0.417,0.243,0.428,0.387,0.367,0.200,0.173,�k,2.8,��
2016/11/07,12:50,0.416,0.242,0.424,0.391,0.367,0.200,0.172,�k�k��,6.2,��
2016/11/07,13:00,0.415,0.243,0.426,0.386,0.366,0.201,0.173,�k,4.4,��
2016/11/07,13:10,0.417,0.242,0.426,0.392,0.367,0.200,0.173,�k�k��,3.7,��
2016/11/07,13:20,0.416,0.242,0.427,0.388,0.366,0.201,0.174,�k,3.5,��
2016/11/07,13:30,0.417,0.240,0.426,0.390,0.364,0.200,0.172,�k�k��,4.6,��
2016/11/07,13:40,0.414,0.242,0.428,0.389,0.368,0.201,0.173,�k�k��,4.7,��
2016/11/07,13:50,0.416,0.242,0.426,0.387,0.365,0.201,0.173,�k,3.4,��
2016/11/07,14:00,0.415,0.241,0.429,0.388,0.368,0.201,0.172,�k�k��,5.0,��
2016/11/07,14:10,0.414,0.243,0.429,0.391,0.367,0.201,0.173,�k�k��,4.1,��
2016/11/07,14:20,0.418,0.242,0.427,0.390,0.367,0.200,0.173,�k,3.6,��
2016/11/07,14:30,0.415,0.242,0.429,0.392,0.367,0.200,0.173,�k�k��,4.1,��
2016/11/07,14:40,0.416,0.243,0.426,0.389,0.367,0.201,0.173,�k�k��,5.0,��
2016/11/07,14:50,0.417,0.243,0.429,0.393,0.369,0.200,0.172,�k,3.2,��
2016/11/07,15:00,0.416,0.243,0.428,0.390,0.368,0.201,0.173,�k,3.2,��
2016/11/07,15:10,0.418,0.243,0.428,0.393,0.367,0.200,0.172,�k�k��,2.8,��
2016/11/07,15:20,0.417,0.243,0.428,0.390,0.368,0.201,0.172,�k,1.7,��
2016/11/07,15:30,0.416,0.244,0.428,0.390,0.367,0.202,0.174,�k,2.4,��
2016/11/07,15:40,0.417,0.243,0.428,0.391,0.367,0.201,0.174,�k,0.7,��
2016/11/07,15:50,0.418,0.242,0.425,0.389,0.367,0.200,0.174,�k,2.5,��
2016/11/07,16:00,0.417,0.243,0.428,0.390,0.366,0.201,0.174,�k,1.4,��
2016/11/07,16:10,0.416,0.243,0.429,0.390,0.367,0.201,0.173,�k�k��,0.7,��
2016/11/07,16:20,0.417,0.243,0.427,0.389,0.367,0.201,0.173,�k,0.8,��
2016/11/07,16:30,0.415,0.243,0.429,0.392,0.367,0.200,0.173,�k�k��,0.7,��
2016/11/07,16:40,0.417,0.242,0.429,0.389,0.370,0.201,0.174,�k�k��,1.7,��
2016/11/07,16:50,0.417,0.244,0.427,0.389,0.366,0.201,0.173,�k,1.9,��
2016/11/07,17:00,0.418,0.242,0.430,0.391,0.366,0.201,0.174,-,CALM,��
2016/11/07,17:10,0.418,0.242,0.428,0.391,0.369,0.201,0.173,-,CALM,��
2016/11/07,17:20,0.416,0.242,0.427,0.390,0.367,0.201,0.175,�k�k��,1.9,��
2016/11/07,17:30,0.417,0.242,0.431,0.392,0.365,0.201,0.173,�k�k��,5.0,��
2016/11/07,17:40,0.416,0.241,0.428,0.390,0.368,0.202,0.173,�k�k��,5.3,��
2016/11/07,17:50,0.418,0.243,0.429,0.390,0.367,0.201,0.173,�k,6.4,��
2016/11/07,18:00,0.417,0.243,0.430,0.391,0.367,0.202,0.173,�k,6.7,��
2016/11/07,18:10,0.416,0.244,0.428,0.391,0.369,0.201,0.174,�k�k��,6.3,��
2016/11/07,18:20,0.418,0.243,0.429,0.388,0.366,0.200,0.173,�k�k��,6.3,��
2016/11/07,18:30,0.418,0.243,0.430,0.392,0.366,0.200,0.173,�k�k��,4.5,��
2016/11/07,18:40,0.416,0.242,0.429,0.390,0.367,0.201,0.174,�k�k��,4.5,��
2016/11/07,18:50,0.419,0.242,0.426,0.391,0.367,0.201,0.173,�k�k��,4.8,��
2016/11/07,19:00,0.420,0.243,0.430,0.392,0.366,0.201,0.172,�k�k��,4.8,��
2016/11/07,19:10,0.417,0.243,0.429,0.390,0.368,0.202,0.172,�k�k��,4.9,��
2016/11/07,19:20,0.417,0.243,0.428,0.391,0.368,0.202,0.173,�k�k��,4.8,��
2016/11/07,19:30,0.418,0.243,0.429,0.393,0.367,0.201,0.173,�k�k��,4.5,��
2016/11/07,19:40,0.417,0.242,0.430,0.391,0.365,0.200,0.174,�k�k��,4.5,��
2016/11/07,19:50,0.417,0.242,0.428,0.391,0.366,0.202,0.173,�k�k��,4.1,��
2016/11/07,20:00,0.419,0.242,0.427,0.391,0.367,0.201,0.173,�k�k��,3.6,��
2016/11/07,20:10,0.417,0.242,0.429,0.392,0.367,0.201,0.174,�k�k��,1.1,��
2016/11/07,20:20,0.416,0.243,0.428,0.390,0.367,0.201,0.172,�k�k��,2.1,��
2016/11/07,20:30,0.417,0.243,0.428,0.390,0.368,0.200,0.173,�k��,1.2,��
2016/11/07,20:40,0.416,0.243,0.429,0.392,0.368,0.200,0.173,�k��,0.8,��
2016/11/07,20:50,0.416,0.242,0.429,0.390,0.366,0.201,0.173,�k��,1.0,��
2016/11/07,21:00,0.418,0.242,0.427,0.391,0.367,0.201,0.173,�k�k��,1.0,��
2016/11/07,21:10,0.415,0.243,0.428,0.392,0.368,0.201,0.173,�k��,0.5,��
2016/11/07,21:20,0.417,0.242,0.431,0.390,0.365,0.201,0.173,�k��,1.2,��
2016/11/07,21:30,0.418,0.243,0.429,0.390,0.367,0.202,0.174,�k��,1.0,��
2016/11/07,21:40,0.419,0.242,0.428,0.390,0.367,0.200,0.174,���k��,0.8,��
2016/11/07,21:50,0.417,0.242,0.429,0.392,0.367,0.201,0.173,��,0.5,��
2016/11/07,22:00,0.417,0.242,0.428,0.390,0.367,0.201,0.174,-,CALM,��
2016/11/07,22:10,0.416,0.243,0.429,0.391,0.368,0.200,0.173,-,CALM,��
2016/11/07,22:20,0.419,0.244,0.430,0.391,0.366,0.202,0.173,-,CALM,��
2016/11/07,22:30,0.415,0.243,0.429,0.389,0.366,0.202,0.173,-,CALM,��
2016/11/07,22:40,0.416,0.243,0.429,0.389,0.367,0.201,0.173,�k�k��,0.8,��
2016/11/07,22:50,0.418,0.243,0.427,0.389,0.367,0.201,0.172,-,CALM,��
2016/11/07,23:00,0.416,0.241,0.431,0.391,0.367,0.201,0.175,-,CALM,��
2016/11/07,23:10,0.416,0.244,0.431,0.392,0.367,0.201,0.174,�k��,0.8,��
2016/11/07,23:20,0.417,0.243,0.429,0.391,0.367,0.202,0.173,�k�k��,1.7,��
2016/11/07,23:30,0.416,0.242,0.429,0.391,0.367,0.201,0.173,�k��,1.4,��
2016/11/07,23:40,0.417,0.243,0.431,0.391,0.366,0.202,0.173,�k��,1.2,��
2016/11/07,23:50,0.417,0.243,0.428,0.392,0.367,0.202,0.172,-,CALM,��
